Theta_e
351 358 364 364 363 363 364 364 364 363 363 363 362 362 361 360 361 361 362 362 362 363 360 357 356 357 356 355 354 354 355 355 354 354 353 353 352 351 349 349 350 347 349
354 360 364 362 363 363 363 363 362 362 362 362 362 362 361 360 361 362 362 362 362 361 357 355 354 354 355 355 356 354 353 355 356 353 352 351 353 350 349 348 349 348 348
355 359 361 362 363 363 363 362 362 361 361 362 362 361 361 361 361 361 361 361 360 357 354 353 353 353 353 354 355 355 355 356 354 352 351 347 348 349 348 348 349 349 348
355 357 359 362 362 363 362 361 361 361 361 360 361 361 361 361 361 361 361 360 358 355 353 353 353 353 353 354 355 356 356 356 355 351 346 345 345 348 347 347 347 349 348
354 355 358 362 362 361 361 360 360 360 360 360 360 360 361 360 360 360 360 360 357 353 353 354 354 356 356 355 355 355 355 355 351 349 348 348 345 348 348 348 347 347 349
354 356 361 361 360 361 361 360 359 359 360 360 360 360 360 360 360 360 360 360 358 354 354 356 356 356 355 355 354 354 352 348 345 335 336 339 347 349 350 349 349 349 347
352 356 358 361 360 360 360 359 359 359 359 359 359 360 360 360 359 359 360 359 358 356 356 356 356 356 355 354 354 352 349 345 335 331 332 344 347 347 353 352 351 350 347
352 355 356 358 360 360 360 359 358 358 358 358 358 359 359 358 358 358 358 357 357 355 355 356 356 355 354 353 353 351 347 344 335 329 329 343 346 348 352 355 356 352 348
355 354 354 355 357 360 359 358 358 358 358 357 357 358 357 358 358 357 357 356 355 355 354 355 355 354 353 352 352 350 346 343 334 330 327 330 341 349 351 356 357 354 352
352 352 353 353 354 355 356 358 358 357 357 357 357 357 357 357 357 357 353 354 354 354 353 353 354 353 352 351 350 349 346 344 335 330 329 328 337 344 352 356 358 357 355
349 351 352 354 354 353 353 356 357 357 357 357 357 357 354 352 354 354 353 352 353 353 352 351 351 351 351 351 349 348 346 334 329 327 326 330 340 345 355 357 358 357 356
346 347 350 351 350 351 354 353 352 353 353 352 353 353 350 348 349 351 352 353 353 352 351 350 349 349 349 339 335 341 337 333 329 328 328 335 341 342 350 357 357 358 356
348 349 350 350 350 351 351 352 351 353 352 351 350 350 348 347 348 350 347 349 348 351 344 347 344 342 337 334 330 325 324 325 327 330 332 341 344 345 349 355 356 356 355
346 348 349 350 351 351 351 350 349 350 350 349 351 350 347 346 345 347 345 344 344 343 342 339 338 336 334 330 328 325 323 324 325 329 332 340 344 346 348 354 357 357 354
344 347 348 350 350 351 349 348 348 349 349 349 350 351 349 346 344 345 345 343 343 341 339 336 334 333 331 329 327 326 325 324 325 328 332 339 345 349 352 354 357 357 356
345 346 349 349 350 351 350 349 348 349 350 350 349 349 349 346 344 344 344 343 342 341 339 336 332 331 329 327 326 326 326 326 327 330 333 337 343 346 351 355 358 358 359
342 345 346 348 350 349 350 350 349 350 350 350 350 350 350 348 345 344 343 342 342 340 338 335 331 329 326 326 325 326 325 327 326 329 334 338 341 345 349 351 354 356 358
339 341 344 347 344 345 349 348 348 346 342 347 349 351 351 350 347 344 342 341 342 339 337 335 332 329 326 325 324 325 326 328 330 332 334 337 342 344 346 351 351 353 355
320 334 338 341 339 340 346 342 339 335 334 341 346 349 350 350 349 344 343 343 342 340 337 336 332 331 329 325 324 326 328 328 330 332 335 338 342 344 345 346 349 350 352
324 328 331 332 335 340 337 334 336 336 338 339 341 345 348 349 349 346 345 344 342 340 337 335 335 330 331 330 327 328 329 330 331 331 332 335 340 343 345 345 345 346 349
325 332 330 330 334 336 333 331 331 333 337 342 343 345 346 349 350 348 346 345 342 339 339 336 335 333 330 329 327 327 327 330 331 331 333 335 337 340 345 345 344 344 345
319 329 330 330 330 331 330 330 333 334 336 341 345 344 345 345 346 347 346 344 340 338 338 337 334 333 333 331 328 325 324 328 328 331 332 333 335 338 340 343 344 344 345
316 317 319 321 329 333 331 333 336 339 339 338 340 341 343 343 343 344 345 341 338 339 337 338 336 333 331 333 331 330 321 319 324 328 330 332 334 334 337 341 343 343 344
313 316 316 317 318 321 327 330 333 334 333 333 333 338 336 341 342 344 343 343 342 338 336 336 339 337 334 331 332 333 332 328 322 321 330 334 334 333 336 337 340 342 345
308 308 308 311 312 314 318 319 319 319 321 322 323 323 324 329 339 342 343 343 341 341 339 339 339 339 337 335 333 332 330 329 328 323 322 323 334 338 339 339 341 342 344
302 304 304 305 305 307 308 310 310 311 313 314 315 316 318 321 325 330 338 341 341 340 340 340 340 340 338 337 336 334 331 327 326 326 325 326 327 333 336 338 339 341 343
Wind_Speed
6 13 16 16 15 16 15 18 19 19 20 20 20 21 20 20 18 17 16 15 14 13 13 12 12 13 13 14 14 13 12 11 11 11 10 8 9 8 9 9 9 7 9
12 15 17 16 16 16 16 17 19 19 19 19 20 20 20 19 18 17 16 15 14 13 13 12 13 13 13 13 13 13 12 9 8 9 8 8 10 8 8 8 8 8 9
12 13 13 16 17 16 16 16 17 19 19 19 19 19 19 19 18 16 15 14 13 13 13 13 13 14 13 13 13 11 10 8 6 7 6 3 4 7 8 8 8 7 7
11 11 11 16 17 16 16 17 17 17 17 18 18 19 19 18 17 16 15 14 13 13 13 13 14 14 13 13 12 10 8 8 7 6 4 3 3 7 7 7 8 8 8
11 8 10 14 17 17 17 17 17 17 17 17 17 16 17 16 15 15 14 14 14 14 13 13 13 11 12 11 10 9 7 5 4 3 3 3 2 5 7 7 7 7 7
11 10 14 13 15 17 18 17 17 17 17 17 17 16 15 15 14 13 13 12 12 13 13 12 11 10 10 10 9 8 6 4 1 1 2 5 5 5 8 8 8 7 7
11 10 10 13 13 15 17 17 16 16 16 16 17 16 15 13 12 11 11 10 10 10 11 11 10 10 10 10 9 8 6 4 2 1 2 4 7 8 10 9 9 8 9
14 13 12 15 12 12 14 15 15 15 15 15 15 14 13 11 10 9 9 9 8 9 9 10 9 8 8 8 8 7 7 5 2 2 1 3 8 10 11 10 10 10 10
11 11 10 10 12 13 13 13 14 14 14 14 14 14 13 12 10 9 7 6 7 7 8 8 8 8 8 8 8 7 6 5 3 2 3 3 7 10 12 12 12 11 10
8 10 7 7 8 7 8 14 15 15 14 13 13 13 12 12 11 10 9 7 7 6 7 7 7 8 8 8 8 8 6 6 3 4 4 4 9 10 14 12 13 11 10
9 10 11 11 7 8 6 8 10 13 12 12 10 11 9 4 5 8 9 10 9 8 8 8 8 9 10 10 9 9 8 2 4 3 3 8 9 8 12 13 12 12 12
11 12 11 12 12 10 7 5 5 6 4 5 6 8 6 6 6 6 7 10 10 10 9 9 10 10 9 3 3 7 2 3 4 4 4 10 10 10 11 13 14 13 12
10 9 11 10 10 10 8 7 6 4 5 4 5 5 4 4 5 4 3 4 4 10 5 6 5 4 5 4 4 3 4 4 4 4 6 9 10 11 12 13 15 14 13
6 13 13 10 11 10 9 9 8 8 8 8 9 9 6 4 6 6 5 5 3 3 4 5 4 5 7 6 6 5 5 5 4 4 5 11 10 13 14 13 14 14 13
9 9 12 13 13 11 11 8 10 9 8 7 9 12 9 7 7 6 6 6 6 4 4 3 3 4 4 4 4 5 7 7 8 4 3 11 11 12 13 13 14 14 13
10 11 12 14 12 11 9 12 9 9 11 7 8 9 13 11 8 9 9 7 5 5 5 4 3 3 4 3 6 6 8 7 7 5 5 5 11 10 11 11 12 13 14
11 8 12 15 14 13 14 10 8 8 7 8 7 7 8 8 8 8 8 8 8 4 5 4 3 2 3 3 4 4 4 5 5 6 5 6 7 9 11 12 13 13 14
9 10 13 11 11 11 13 7 5 4 2 3 2 2 6 7 8 6 7 7 5 6 5 5 5 4 4 3 2 4 4 4 5 6 8 7 6 5 7 13 14 14 14
10 7 7 9 10 8 2 2 3 2 4 4 3 5 7 10 9 7 7 5 4 4 5 5 3 4 4 4 5 5 5 6 6 7 10 8 9 7 6 9 13 15 15
5 5 5 5 5 6 4 3 3 4 4 5 6 5 9 8 11 10 7 5 5 4 4 4 7 4 6 6 7 7 5 5 5 8 9 7 8 8 7 8 7 7 13
6 7 8 8 7 7 4 3 2 5 3 1 3 7 7 6 9 8 7 5 2 5 7 5 4 6 5 2 2 4 6 9 10 10 7 8 10 9 8 8 6 6 5
5 7 7 5 6 3 2 2 2 2 3 3 2 5 6 6 5 6 6 6 7 11 4 6 6 3 3 5 5 1 5 4 6 8 7 9 11 6 9 9 8 8 7
5 5 5 4 2 1 5 2 1 0 1 2 3 3 4 7 7 7 10 7 6 13 10 12 7 5 8 5 7 5 2 5 1 2 8 8 9 7 8 7 8 9 8
6 7 8 7 7 4 5 3 3 2 1 1 1 2 3 3 5 7 8 7 9 9 12 13 8 12 8 9 3 7 11 4 5 5 2 4 4 6 8 7 8 9 8
10 10 8 9 10 9 8 5 4 2 1 2 2 5 4 3 4 7 9 10 8 6 10 12 11 12 10 11 10 7 6 8 6 6 11 4 2 4 6 6 6 5 7
10 10 10 10 9 10 9 9 8 8 7 5 5 5 5 4 4 6 7 8 8 8 9 9 11 13 12 10 8 8 10 8 8 8 9 9 6 4 3 4 5 6 6
Wind_Direction
176 148 150 149 148 141 136 125 120 120 124 127 128 127 128 132 134 136 137 133 131 132 136 134 124 120 119 117 117 114 113 121 126 122 118 120 135 129 129 122 118 111 106
142 143 146 146 147 143 134 127 124 124 126 128 129 129 130 133 135 138 138 136 137 142 141 135 132 129 126 126 124 123 123 128 131 125 123 114 139 145 136 132 131 129 124
138 136 140 143 145 140 135 131 126 127 129 130 132 131 134 137 140 141 141 140 140 145 145 143 139 135 132 131 129 128 126 129 128 130 122 103 135 135 146 146 138 133 130
133 131 135 140 138 137 136 134 131 129 129 131 132 134 137 140 143 143 143 142 146 149 150 148 145 141 140 138 136 131 139 141 149 145 133 157 169 161 157 157 156 159 151
124 116 139 137 138 139 141 138 135 133 132 132 134 138 140 142 144 145 146 147 150 155 154 152 148 146 145 144 142 145 145 152 167 207 204 205 200 183 175 173 176 177 172
131 127 141 139 143 143 145 141 138 136 137 136 139 143 145 147 146 147 147 148 155 158 160 157 154 157 154 152 153 153 152 165 149 264 257 219 198 209 196 196 200 196 186
127 137 139 138 146 146 147 143 140 140 140 142 144 146 148 147 146 145 144 150 158 162 167 165 167 168 164 166 166 167 169 191 164 252 306 188 190 211 206 208 211 207 202
140 150 153 154 145 150 147 146 144 144 146 147 147 145 143 141 141 140 145 155 165 171 177 177 175 180 178 181 182 188 189 201 178 235 257 196 205 210 214 224 221 209 207
133 142 154 156 152 150 149 149 149 149 151 151 150 147 147 146 145 146 153 164 175 181 184 189 191 192 195 200 206 213 216 215 201 242 247 221 224 230 228 225 229 224 218
141 152 141 155 158 149 160 159 159 158 156 156 155 154 154 155 156 160 170 178 191 199 199 200 205 211 218 220 228 235 242 245 227 236 244 248 249 249 227 225 230 230 223
164 168 163 157 149 160 152 167 163 164 160 156 159 158 155 155 168 182 182 187 194 204 211 213 220 224 226 232 236 244 250 243 239 240 243 252 257 252 228 225 231 233 230
178 179 180 172 166 166 159 158 161 168 161 172 168 171 173 174 177 182 197 200 202 207 212 219 224 229 240 241 258 264 263 255 253 250 246 251 249 253 245 236 230 232 232
172 178 185 183 174 166 160 166 174 175 172 176 179 180 178 176 181 183 186 204 206 210 206 211 221 222 220 226 242 241 249 251 246 252 257 257 255 256 253 244 225 224 228
211 182 182 181 177 180 169 175 183 185 186 188 189 186 176 186 193 192 192 204 205 207 218 216 218 218 225 224 225 239 238 240 247 249 257 266 258 256 259 245 225 224 228
190 208 201 187 189 192 177 184 177 193 200 208 194 186 181 193 199 197 211 195 203 194 206 214 234 263 259 264 261 247 252 246 245 241 242 264 265 264 264 239 219 225 232
202 200 201 204 205 195 201 188 192 198 184 196 210 214 202 186 201 202 190 207 220 197 193 195 211 230 264 264 265 272 279 288 291 296 285 268 267 269 259 231 226 226 232
215 208 218 203 195 201 202 195 204 193 220 185 207 215 207 226 203 203 228 197 192 205 183 179 193 197 251 258 263 272 282 278 282 285 272 271 278 273 259 236 228 228 233
231 202 211 207 203 216 215 199 183 159 147 229 190 193 210 213 230 215 232 229 183 167 191 208 191 205 223 217 244 270 274 264 269 268 268 265 262 257 256 245 236 238 236
229 232 230 205 201 200 205 158 132 183 191 169 183 209 207 210 207 209 230 227 191 201 199 212 223 222 217 200 221 223 223 244 249 261 261 260 255 247 242 245 238 237 238
202 173 202 204 190 155 137 157 200 223 214 193 203 206 211 204 199 201 212 220 184 188 203 209 225 202 231 245 239 241 224 232 232 239 250 251 248 251 240 241 247 243 235
179 166 172 176 179 168 162 161 206 231 261 288 203 222 213 202 199 194 206 214 176 237 236 238 247 234 249 188 251 270 248 237 233 241 233 235 248 242 230 234 239 245 238
209 201 176 173 158 171 130 143 176 183 217 220 224 227 213 198 186 180 169 157 109 311 315 246 214 234 243 177 238 280 285 273 242 238 223 231 239 238 244 239 235 244 234
47 43 64 92 114 187 192 155 192 257 271 245 229 246 217 191 198 210 225 205 199 222 223 245 217 222 251 234 229 234 277 244 339 218 229 227 233 223 235 225 227 231 227
42 70 86 79 79 62 121 152 178 186 215 264 278 286 317 269 211 230 245 247 220 209 230 239 237 228 213 256 245 238 261 277 258 296 294 260 224 240 236 229 225 231 224
24 28 15 20 31 17 12 55 85 74 314 315 324 319 312 286 219 214 220 228 230 219 224 221 216 216 216 221 216 217 233 259 265 254 266 270 268 225 238 237 224 204 216
33 34 30 29 19 15 17 12 12 348 334 326 303 293 281 261 250 234 224 225 229 223 221 220 222 219 216 222 225 219 223 221 235 239 251 256 254 279 270 233 219 216 228